SITRO-AIS 34

Last updated on Thu Nov 21 2024 00:03:40 GMT+0000 (Coordinated Universal Time)

1 59058U 24039H 24325.60598746 .00066762 00000+0 14602-2 0 9997 2 59058 97.4082 288.0188 0014769 36.7974 323.4285 15.43804782 40583
UTC large
Height (km)
Speed (km/s)
/
Latitude / Longitude
Inclination (degrees)
Orbital Period (minutes)
Azimuth
Elevation
Range (km)
Doppler Factor

Next 0 passes for location: London (51.5072 / 0.1276)

Sorry there are no passes over London.